Lid_Strength_Index
0 1 1 1 1 1 0 0 -1 -1 -1 -0 -0 -0 -1 -0 -0 -0 -0 0 0 0
0 0 1 0 -0 1 -0 0 -0 -0 -0 -0 -0 -0 -0 -0 0 0 0 0 -0 0
0 0 -0 -0 0 0 -0 -0 -0 -0 -0 -0 -0 -0 0 0 0 1 1 0 1 1
1 0 0 0 0 0 -0 -0 0 -0 0 0 0 0 0 0 1 1 1 1 1 1
0 0 0 1 0 -0 0 -0 -0 -0 0 1 1 0 1 1 1 1 2 2 1 1
1 1 1 1 0 -0 -0 -0 -0 -0 0 1 1 1 1 1 1 1 1 1 2 2
1 1 1 1 0 0 -0 0 0 -0 1 0 0 1 1 1 1 1 1 1 1 1
1 1 0 1 1 0 0 0 0 1 1 0 0 1 1 1 1 1 1 1 1 0
1 1 1 1 1 1 1 0 0 1 1 0 1 6 5 4 0 1 1 1 1 0
1 1 1 1 1 1 1 1 1 1 1 1 0 5 6 6 0 1 1 1 1 1
1 1 1 1 1 0 0 0 0 1 1 1 1 7 8 8 0 0 1 0 0 1
1 1 1 1 1 1 1 1 1 1 1 1 1 8 9 6 0 1 1 1 0 0
1 1 2 1 1 0 0 1 1 1 1 3 1 9 9 4 1 2 1 1 1 7
0 1 1 0 1 1 0 1 1 1 1 1 1 2 9 8 1 1 1 1 1 0